{"data":{"norad_id":55272,"intl_designator":"2023-010D","name":"STARLINK-5310","alt_names":[],"object_type":"PAYLOAD","status":"ACTIVE","operator":null,"country":"US","launch_date":"2023-01-19","launch_site_code":"AFWTR","launch_vehicle":null,"mission":null,"orbit_class":"UNKNOWN","rcs_meters":null,"size_class":null,"mass_kg":null,"dimensions":null,"purposes":["comms"],"wikipedia_slug":null,"has_3d_model":false,"image_url":null,"decayed_at":null,"tle_current":{"epoch":"2026-09-20T22:00:03.000096Z","epoch_age_seconds":57418,"freshness":"FRESH","line1":"1 55272U 23010D   26263.91670139  .00114159  00000+0  77524-2 0  9999","line2":"2 55272  69.9996 272.1573 0006095 265.9595 351.9663 15.05727170  5765","mean_motion":15.0572717,"eccentricity":0.0006095,"inclination_deg":69.9996,"raan_deg":272.1573,"arg_perigee_deg":265.9595,"mean_anomaly_deg":351.9663,"bstar":0.0077524,"rev_number":576,"period_min":95.634855283909,"perigee_km":545.05219554416,"apogee_km":553.49671010515,"semimajor_km":6927.4114528247,"source":"CELESTRAK","updated_at":"2026-09-21T09:00:33.164053Z"}}}